Hourly Data Report for February 18, 2004

TORONTO CITY
ONTARIO

43°40'00.000" N
79°24'00.000" W
112.50 m
6158355
71508
XTO

Download Data

Hourly Data (February 2004)
Hourly Data Report for February 18, 2004
TIME
LST
Temp Definition
°C
Dew Point Definition
°C
Rel Hum Definition
%
Precip. Amount Definition
mm

Wind Dir Definition
10's deg

Wind Spd Definition
km/h
Visibility Definition
km
Stn Press Definition
kPa
Hmdx Definition


Wind Chill Definition


Weather Definition


00:00 -4.5 -12.4 54   LegendMM LegendMM LegendMM 101.55     LegendNANA
01:00 -4.1 -11.9 55   LegendMM LegendMM LegendMM 101.55     LegendNANA
02:00 -3.8 -10.1 62   LegendMM LegendMM LegendMM 101.54     LegendNANA
03:00 -4.9 -10.6 64   LegendMM LegendMM LegendMM 101.51     LegendNANA
04:00 -5.1 -9.6 71   LegendMM LegendMM LegendMM 101.43     LegendNANA
05:00 -5.4 -9.0 76   LegendMM LegendMM LegendMM 101.45     LegendNANA
06:00 -3.3 -7.5 73   LegendMM LegendMM LegendMM 101.45     LegendNANA
07:00 -3.1 -7.5 72   LegendMM LegendMM LegendMM 101.40     LegendNANA
08:00 -2.4 -7.0 71   LegendMM LegendMM LegendMM 101.43     LegendNANA
09:00 -1.9 -7.6 65   LegendMM LegendMM LegendMM 101.41     LegendNANA
10:00 -1.5 -7.6 63   LegendMM LegendMM LegendMM 101.36     LegendNANA
11:00 -1.5 -7.9 62   LegendMM LegendMM LegendMM 101.32     LegendNANA
12:00 -0.9 -7.4 61   LegendMM LegendMM LegendMM 101.30     LegendNANA
13:00 -0.5 -6.4 64   LegendMM LegendMM LegendMM 101.18     LegendNANA
14:00 -0.5 -6.2 65   LegendMM LegendMM LegendMM 101.05     LegendNANA
15:00 -0.6 -5.7 68   LegendMM LegendMM LegendMM 100.87     LegendNANA
16:00 -0.7 -6.1 67   LegendMM LegendMM LegendMM 100.82     LegendNANA
17:00 -1.0 -4.9 75   LegendMM LegendMM LegendMM 100.72     LegendNANA
18:00 -1.1 -5.1 74   LegendMM LegendMM LegendMM 100.58     LegendNANA
19:00 -1.0 -4.8 75   LegendMM LegendMM LegendMM 100.41     LegendNANA
20:00 -0.8 -4.3 77   LegendMM LegendMM LegendMM 100.24     LegendNANA
21:00 -0.4 -4.8 72   LegendMM LegendMM LegendMM 100.10     LegendNANA
22:00 0.2 -4.5 71   LegendMM LegendMM LegendMM 100.03     LegendNANA
23:00 -0.1 -4.4 73   LegendMM LegendMM LegendMM 99.94     LegendNANA

Notes on Data Quality.

Legend

  • E = Estimated
  • M = Missing
  • NA = Not Available*
  • [empty] = Indicates an unobserved value
Date modified: